Weather History for Orlando, FL

Change the Weather History Date:

Monday, October 1, 2012

  Actual Average Record
Temperature  
Mean Temperature 81 °F -  
Max Temperature 90 °F 84 °F 90 °F (2006)
Min Temperature 73 °F 70 °F 61 °F (2001)
Cooling Degree Days 16    
Growing Degree Days 31 (Base 50)    
Moisture  
Dew Point 74 °F    
Average Humidity 84    
Maximum Humidity 100    
Minimum Humidity 57    
Precipitation  
Precipitation 2.32 in - - ()
Sea Level Pressure  
Sea Level Pressure 29.81 in    
Wind  
Wind Speed 7 mph (South)    
Max Wind Speed 20 mph    
Max Gust Speed 25 mph    
Visibility 7 miles    
Events Rain , Thunderstorm    
Averages and records for this station are not official NWS values.
T = Trace of Precipitation, MM = Missing Value Source: NWS Daily Summary

Daily Weather History Graph

Daily Weather History Graph

Search for Another Location

Airport:

Trip Planner

Search our weather history database for the weather conditions in past years. The results will help you decide how hot, cold, wet, or windy it might be!

Date:

Astronomy

Oct. 01, 2012 Rise Set
Actual Time 7:18 AM EDT 7:10 PM EDT
Civil Twilight 6:55 AM EDT 7:34 PM EDT
Nautical Twilight 6:27 AM EDT 8:01 PM EDT
Astronomical Twilight 6:00 AM EDT 8:28 PM EDT
Moon 8:00 PM EDT (10/1) 8:35 AM EDT (10/1)
Length of Visible Light 12h 39m
Length of Day
11h 52m
Full, 98% of the Moon is Illuminated
Oct 1
Full
Oct 8
Last Quarter
Oct 15
New
Oct 21
First Quarter
Oct 29
Full

Hourly Weather History & Observations

Time (EDT) Temp. Heat Index Dew Point Humidity Pressure Visibility Wind Dir Wind Speed Gust Speed Precip Events Conditions
12:25 AM 78.8 °F - 73.4 °F 83% 29.85 in 10.0 mi South 12.7 mph - N/A Thunderstorm Mostly Cloudy
12:36 AM 77.0 °F - 73.4 °F 89% 29.86 in 3.0 mi SSW 6.9 mph 18.4 mph 0.06 in Rain Heavy Rain
12:41 AM 75.2 °F - 73.4 °F 94% 29.86 in 1.8 mi SSW 6.9 mph - 0.12 in Rain Heavy Rain
12:51 AM 75.2 °F - 73.4 °F 94% 29.85 in 1.2 mi SSW 5.8 mph - 0.30 in Rain , Thunderstorm Heavy Thunderstorms and Rain
1:06 AM 75.2 °F - 73.4 °F 94% 29.85 in 1.5 mi South 6.9 mph - 0.27 in Rain Heavy Rain
1:26 AM 75.2 °F - 73.4 °F 94% 29.84 in 3.0 mi SSW 3.5 mph - 0.43 in Rain Rain
1:53 AM 75.9 °F - 73.0 °F 91% 29.83 in 6.0 mi Calm Calm - 0.46 in Rain Light Rain
2:53 AM 75.9 °F - 73.0 °F 91% 29.80 in 10.0 mi Calm Calm - 0.01 in   Clear
3:53 AM 75.0 °F - 73.0 °F 94% 29.80 in 10.0 mi ESE 3.5 mph - N/A   Clear
4:30 AM 73.4 °F - 73.4 °F 100% 29.80 in 9.0 mi SE 4.6 mph - N/A   Scattered Clouds
4:53 AM 73.9 °F - 73.0 °F 97% 29.81 in 9.0 mi Calm Calm - N/A   Scattered Clouds
5:53 AM 73.9 °F - 73.0 °F 97% 29.81 in 8.0 mi Calm Calm - N/A   Clear
6:53 AM 75.0 °F - 73.0 °F 94% 29.81 in 9.0 mi SSE 4.6 mph - N/A   Scattered Clouds
7:53 AM 75.0 °F - 73.9 °F 96% 29.82 in 9.0 mi Calm Calm - N/A   Clear
8:53 AM 79.0 °F - 73.9 °F 84% 29.82 in 10.0 mi SE 5.8 mph - N/A   Clear
9:53 AM 82.0 °F 88.6 °F 75.0 °F 79% 29.83 in 10.0 mi SSE 9.2 mph 17.3 mph N/A   Partly Cloudy
11:08 AM 84.2 °F 90.9 °F 73.4 °F 70% 29.82 in 10.0 mi South 12.7 mph - N/A   Mostly Cloudy
11:53 AM 84.9 °F 90.7 °F 72.0 °F 65% 29.82 in 10.0 mi South 10.4 mph - N/A   Scattered Clouds
12:53 PM 84.9 °F 90.7 °F 72.0 °F 65% 29.82 in 9.0 mi SSW 13.8 mph - N/A   Overcast
2:53 PM 89.1 °F 96.0 °F 72.0 °F 57% 29.75 in 10.0 mi South 10.4 mph - N/A   Clear
3:53 PM 88.0 °F 94.7 °F 72.0 °F 59% 29.73 in 10.0 mi SSW 9.2 mph - N/A   Mostly Cloudy
4:01 PM 87.8 °F 93.8 °F 71.6 °F 58% 29.73 in 10.0 mi WSW 10.4 mph - N/A   Mostly Cloudy
4:26 PM 82.4 °F 89.5 °F 75.2 °F 79% 29.75 in 2.5 mi South 11.5 mph 21.9 mph 0.13 in Rain , Thunderstorm Heavy Rain
4:34 PM 82.4 °F 89.5 °F 75.2 °F 79% 29.75 in 3.0 mi WSW 9.2 mph 19.6 mph 0.14 in Rain , Thunderstorm Light Rain
4:40 PM 82.4 °F 89.5 °F 75.2 °F 79% 29.75 in 10.0 mi South 9.2 mph - 0.14 in Thunderstorm Thunderstorm
4:53 PM 82.0 °F 88.6 °F 75.0 °F 79% 29.77 in 10.0 mi South 8.1 mph - 0.14 in Thunderstorm Thunderstorm
5:17 PM 82.4 °F 89.5 °F 75.2 °F 79% 29.75 in 10.0 mi South 4.6 mph - N/A   Partly Cloudy
5:53 PM 82.0 °F 88.6 °F 75.0 °F 79% 29.77 in 10.0 mi ENE 4.6 mph - N/A   Clear
7:53 PM 80.1 °F 85.4 °F 75.9 °F 87% 29.79 in 10.0 mi SE 6.9 mph - 0.00 in   Partly Cloudy
8:44 PM 78.8 °F - 75.2 °F 89% 29.81 in 1.8 mi South 11.5 mph 17.3 mph 0.25 in Rain Heavy Rain
8:47 PM 78.8 °F - 75.2 °F 89% 29.82 in 1.0 mi South 19.6 mph 25.3 mph 0.40 in Rain , Thunderstorm Heavy Thunderstorms and Rain
8:53 PM 75.0 °F - 73.0 °F 94% 29.83 in 0.8 mi ESE 8.1 mph 25.3 mph 0.85 in Rain , Thunderstorm Heavy Thunderstorms and Rain
9:10 PM 75.2 °F - 73.4 °F 94% 29.82 in 1.5 mi ESE 8.1 mph - 0.62 in Rain , Thunderstorm Heavy Thunderstorms and Rain
9:31 PM 77.0 °F - 71.6 °F 83% 29.81 in 3.0 mi South 3.5 mph - 0.86 in Rain , Thunderstorm Light Thunderstorms and Rain
9:39 PM 77.0 °F - 71.6 °F 83% 29.81 in 10.0 mi SSE 5.8 mph - 0.86 in Thunderstorm Thunderstorm
9:53 PM 75.0 °F - 72.0 °F 90% 29.82 in 10.0 mi SE 3.5 mph - 0.86 in Thunderstorm Thunderstorm
10:53 PM 77.0 °F - 73.9 °F 90% 29.83 in 10.0 mi SE 6.9 mph - N/A   Clear
11:53 PM 78.1 °F - 75.0 °F 90% 29.83 in 10.0 mi South 6.9 mph - N/A   Clear